weather.gov     
National Weather Service

Regional Weather Roundup
NWS Homepage
This page is being discontinued on March 12, 2014.
The same data is available at this site. Please update your bookmarks.
Thank you, and we apologize for the inconvenience.
Please send an email to SR-SRH.Webmaster@noaa.gov with any concerns.


Current Version
Previous Version:    01  02  03  04  05  06  07  08  09  10  11  12  13  14  15  16  17  18  19  20  21  22  23  24  25  26  27  28  29  30  
   31  32  33  34  35  36  37  38  39  40  41  42  43  44  45  46  47  48  49  50  51  52  53  
[Printable]
934
ASUS44 KMEG 191110
RWRTN
TENNESSEE HOURLY STATE WEATHER ROUNDUP
NATIONAL WEATHER SERVICE MEMPHIS TN
600 AM CDT SAT APR 19 2014

TNZ002-004-019-021-049-052-054-088>092-191200-
WEST TENNESSEE

CITY           SKY/WX    TMP DP  RH WIND       PRES   REMARKS
MEMPHIS INTL   PTCLDY    54  50  86 CALM      30.18S
NWS MEMPHIS      N/A     49 N/A N/A MISG        N/A
JACKSON        CLEAR     45  43  93 CALM      30.19R FOG
DYERSBURG      CLEAR     54  39  58 NE3       30.22R
UNION CITY     CLEAR     46  46 100 CALM      30.20S
PARIS          PTCLDY    43  40  89 N5        30.21R
LEXINGTON      CLEAR     45  45 100 CALM      30.17S
SAVANNAH       CLEAR     43  43 100 CALM      30.18R
$$

TNZ008-025-027-028-033-062-065-066-191200-
NORTH MIDDLE TENNESSEE

CITY           SKY/WX    TMP DP  RH WIND       PRES   REMARKS
NASHVILLE      PTCLDY    50  45  83 CALM      30.18S
DICKSON        CLEAR     54  43  66 N6        30.18S
PORTLAND       CLEAR     43  43 100 CALM      30.19S
CLARKSVILLE    PTCLDY    47  43  86 CALM      30.20R
SMYRNA         PTCLDY    45  43  93 CALM      30.18S
MURFREESBORO   CLEAR     50  45  83 N3        30.16F
COOKEVILLE     CLEAR     43  41  93 CALM      30.15S
LIVINGSTON     CLOUDY    49  39  68 NE6       30.18S
GALLATIN       CLEAR     49  44  83 N7        30.18F
CROSSVILLE     CLOUDY    52  37  56 NE5       30.17R
$$

TNZ061-075-076-078-094-096-097-191200-
SOUTH MIDDLE TENNESSEE

CITY           SKY/WX    TMP DP  RH WIND       PRES   REMARKS
LEWISBURG      CLEAR     48  44  86 N3        30.16S
FAYETTEVILLE   CLOUDY    50  45  83 N8        30.14S
TULLAHOMA        N/A     48  45  87 N5        30.16R
WINCHESTER     CLEAR     45  45 100 CALM      30.16R
MCMINNVILLE    CLEAR     45  45 100 CALM      30.17R
COLUMBIA       CLEAR     45  45 100 CALM      30.16S
SHELBYVILLE    CLEAR     50  46  87 N5        30.17S
$$

TNZ017-018-042-046-047-191200-
NORTHEAST TENNESSEE

CITY           SKY/WX    TMP DP  RH WIND       PRES   REMARKS
TRI CITIES     CLOUDY    50  35  56 CALM      30.15R
ELIZABETHTON   CLOUDY    46  39  76 CALM      30.14R
$$

TNZ012-013-036-069-073-074-191200-
CENTRAL EAST TENNESSEE

CITY           SKY/WX    TMP DP  RH WIND       PRES   REMARKS
KNOXVILLE      CLOUDY    52  41  66 E5        30.14R
OAK RIDGE      CLOUDY    50  43  77 CALM      30.15R
$$

TNZ083-085-099-191200-
SOUTHEAST TENNESSEE

CITY           SKY/WX    TMP DP  RH WIND       PRES   REMARKS
CHATTANOOGA    CLOUDY    54  46  74 E3        30.13R
$$

SKY/WX REPORTED AS FAIR MEANS FEW OR NO CLOUDS BELOW
12 THOUSAND FEET.





U.S. Dept. of Commerce
NOAA National Weather Service
1325 East West Highway
Silver Spring, MD 20910
E-mail: w-nws.webmaster@noaa.gov
Page last modified: May 16, 2007
NATIONAL WEATHER SERVICE: for Safety, for Work, for Fun - FOR LIFE